Temperature
14 14 14 14 14 14 14 14 13 13 13 13 13 13 13 13 13 13 13 13 13 14 14 14 14 14 14 14 14 15 15 15 15 15 15 15 15 15
14 14 14 14 14 14 13 13 13 13 13 13 13 13 13 13 13 13 13 13 13 13 13 13 13 14 14 14 14 14 14 14 14 15 15 15 15 15
14 14 14 14 14 13 13 13 13 13 13 12 12 12 12 13 13 13 13 13 13 13 13 13 13 13 13 14 14 14 14 14 14 14 14 14 14 14
14 14 14 13 13 13 13 13 13 13 12 12 12 12 12 12 12 12 12 12 12 13 13 13 13 13 13 13 13 13 13 13 13 13 13 13 13 13
14 13 13 13 13 13 13 13 12 12 12 12 12 12 12 12 12 12 12 12 12 12 12 12 12 12 13 13 13 13 13 13 13 13 13 13 13 13
13 13 13 13 13 13 13 12 12 12 12 12 12 12 12 12 12 12 12 12 12 12 12 12 12 12 12 12 12 12 12 12 12 12 12 12 12 12
13 13 13 13 12 12 12 12 12 12 12 11 11 11 11 11 11 11 11 11 11 11 11 11 11 11 11 12 11 11 11 11 11 12 12 12 12 12
13 12 12 12 12 12 12 12 11 11 11 11 11 11 11 10 10 10 10 11 11 11 11 11 11 11 11 11 11 11 11 11 11 11 11 11 11 11
12 12 12 12 12 12 11 11 11 11 11 11 11 10 10 10 10 10 10 10 10 10 10 10 10 10 10 10 10 10 10 10 10 11 11 11 11 11
12 12 12 11 11 11 11 11 11 11 10 10 10 10 10 10 9 9 9 9 9 9 9 9 10 10 10 10 10 10 10 10 10 10 10 10 10 10
11 11 11 11 11 11 11 11 11 10 10 10 10 9 9 9 9 9 9 9 9 9 9 9 9 9 9 9 9 9 9 9 9 9 9 9 9 10
11 11 11 11 11 10 10 10 10 10 10 9 9 9 9 9 9 9 9 9 9 8 8 8 8 8 8 8 8 8 9 9 9 9 9 9 9 9
11 11 11 10 10 10 10 10 10 9 9 9 9 9 9 9 9 8 8 8 8 8 8 7 7 7 7 7 8 8 8 8 8 8 8 8 8 8
11 11 10 10 10 10 10 10 9 9 9 9 9 9 8 8 8 8 8 8 8 7 7 7 7 7 7 7 7 7 8 8 8 8 8 8 8 7
10 10 10 10 10 10 9 9 9 9 9 8 8 8 8 8 8 8 8 8 7 7 7 7 7 6 6 6 6 7 7 7 7 7 7 7 7 7
10 10 10 9 9 9 9 9 8 8 8 8 8 8 7 7 7 7 7 7 7 7 7 7 6 6 6 6 6 6 6 6 6 6 6 6 6 6
10 9 9 9 9 9 9 8 8 8 8 8 7 7 7 7 7 7 7 7 6 7 7 7 6 6 6 6 5 6 5 6 6 6 6 6 6 6
9 9 9 9 9 8 8 8 8 8 7 7 7 7 7 6 6 6 6 6 6 6 6 6 6 6 6 5 5 5 5 5 5 5 5 5 5 5
9 9 9 8 8 8 8 8 7 7 7 7 7 6 6 6 6 6 6 5 5 5 5 5 5 4 4 4 5 4 4 4 4 4 4 4 4 4
8 8 8 8 8 8 7 7 7 7 6 6 6 6 6 6 6 5 5 5 5 5 5 4 4 4 4 3 4 4 4 3 3 3 3 3 3 4
8 8 8 8 7 7 7 7 6 6 6 6 6 6 5 5 5 5 5 4 4 4 4 4 4 3 3 3 3 3 3 3 2 2 2 2 2 3
8 8 7 7 7 7 6 6 6 6 6 6 5 5 5 5 5 4 4 4 4 3 3 3 3 3 3 2 2 2 2 3 3 2 2 2 1 1
7 7 7 7 6 6 6 6 6 5 5 5 5 5 5 4 4 4 4 3 3 3 3 3 3 2 2 2 1 1 1 1 2 2 2 2 2 1
Wind_Speed
4 4 4 3 3 2 2 2 3 1 2 4 4 5 10 10 11 11 11 12 13 13 13 13 13 12 12 12 12 12 12 11 9 8 7 6 5 4
3 5 4 3 3 3 3 2 2 2 1 2 2 4 7 8 11 11 11 13 13 13 13 13 12 12 12 13 13 12 12 11 10 10 10 10 9 7
4 5 4 3 3 3 3 3 3 2 2 2 2 3 5 6 9 11 11 11 11 14 14 14 13 13 13 13 13 13 12 11 11 10 10 10 9 8
4 4 4 3 4 3 3 3 3 2 2 1 3 4 4 5 6 7 9 10 10 12 14 14 14 14 14 13 13 13 13 12 11 10 10 10 9 8
3 3 2 3 3 3 3 3 2 3 2 2 2 2 3 4 5 5 6 7 9 10 12 13 14 14 14 14 14 14 13 13 12 12 11 11 10 9
3 2 2 2 2 2 3 3 3 4 3 2 2 2 3 3 3 4 5 5 5 8 10 10 12 13 13 14 13 13 13 13 12 12 11 11 11 10
3 3 2 3 3 3 3 2 3 3 3 2 2 2 3 3 4 3 4 4 4 4 5 6 8 9 10 12 12 12 12 13 12 11 11 11 11 11
3 3 3 4 5 6 5 5 4 3 2 1 1 1 2 2 2 3 3 4 4 4 4 5 5 4 7 8 10 12 11 12 12 11 11 11 11 11
2 2 3 4 5 3 5 6 5 4 3 2 1 1 2 2 2 2 2 2 3 4 3 4 4 4 6 8 10 11 11 12 12 12 11 11 11 11
2 2 2 2 2 3 3 4 3 3 3 2 1 1 2 2 1 1 2 2 3 3 2 2 4 4 6 8 9 10 11 11 12 13 12 12 12 12
1 2 2 1 3 4 4 3 3 3 5 5 4 4 5 5 3 2 2 2 3 4 2 1 3 4 4 4 7 10 10 11 12 13 12 12 12 12
1 1 1 2 2 3 3 3 1 2 2 4 5 6 6 6 6 2 0 1 2 3 3 2 3 4 4 3 5 8 9 10 12 12 12 11 12 10
1 0 1 1 2 2 2 2 1 0 1 2 2 3 4 4 5 4 2 0 1 3 3 2 3 3 3 4 5 5 7 8 10 10 11 11 12 9
2 2 1 1 2 1 1 2 2 2 2 2 2 3 3 4 4 5 5 3 3 4 5 3 3 3 4 5 5 5 6 7 8 8 9 11 11 11
2 3 2 2 1 1 1 2 2 1 1 1 2 3 3 4 4 4 5 5 5 5 6 5 4 4 4 5 5 5 6 6 6 7 8 8 8 8
1 2 2 2 2 1 2 2 1 0 0 1 2 3 3 3 3 3 3 4 4 5 6 7 6 4 4 5 6 7 6 5 6 7 8 8 9 9
3 2 1 1 1 1 1 1 1 1 1 2 2 3 3 3 3 3 2 3 3 5 6 5 7 7 6 5 5 7 7 7 8 8 8 8 8 9
4 2 1 1 2 2 2 2 2 2 2 2 3 3 3 4 4 4 3 3 4 6 6 6 5 5 5 4 6 6 6 7 8 8 7 8 10 9
3 2 3 3 3 3 3 3 3 3 3 3 3 4 4 4 4 4 4 4 5 6 6 5 4 4 7 9 5 5 6 8 8 8 8 8 10 11
2 3 3 3 3 3 3 3 3 3 3 3 4 4 4 4 5 5 5 6 6 7 7 5 4 5 6 8 8 7 9 8 7 9 9 9 9 12
3 3 3 3 3 3 3 3 3 3 4 3 4 4 4 4 5 6 6 8 7 6 7 8 7 9 6 5 7 8 7 10 10 9 9 10 10 9
3 4 3 4 4 3 3 3 3 4 4 4 5 5 5 5 6 7 7 7 7 7 8 8 7 5 4 6 10 11 10 9 11 15 14 12 9 9
3 3 3 3 3 3 3 3 4 4 4 4 5 5 5 5 6 6 7 7 7 7 7 7 6 5 6 7 9 10 12 12 9 9 10 14 16 19
Wind_Direction
67 67 65 43 50 55 88 126 135 90 355 336 342 346 0 14 17 22 24 24 26 27 27 26 25 27 31 33 31 26 24 20 23 25 35 40 40 44
65 71 60 45 50 51 65 67 97 132 114 326 327 326 351 12 16 20 23 24 26 28 28 27 26 29 30 31 29 26 24 24 32 36 42 45 40 34
58 70 58 51 55 47 56 61 62 87 110 333 332 335 356 7 8 15 23 26 25 28 30 30 30 32 32 32 31 29 26 31 38 38 36 34 35 31
64 66 53 60 56 49 59 62 61 67 110 43 346 350 353 353 359 6 16 22 24 26 32 32 34 36 36 34 31 30 30 34 39 38 35 29 25 21
79 80 64 73 62 55 63 66 62 63 73 94 354 344 342 350 356 2 8 13 19 19 25 30 33 36 36 34 32 31 30 29 34 35 32 27 21 17
72 79 77 90 104 93 78 77 80 73 68 69 24 353 342 336 359 2 359 357 1 10 15 18 23 28 29 28 26 27 27 24 25 28 25 23 19 15
59 51 64 76 86 94 98 108 98 85 73 60 26 0 350 352 353 343 350 338 346 4 357 6 10 15 15 15 16 17 19 18 16 18 18 14 10 7
81 51 50 52 62 65 77 92 101 106 106 90 28 350 320 314 324 343 347 357 342 346 354 344 2 358 358 3 6 8 10 10 8 8 7 6 2 358
97 79 67 57 54 60 63 63 56 60 91 134 147 263 279 283 314 339 342 340 308 317 340 330 341 338 339 348 355 359 3 3 2 360 357 354 354 352
85 97 98 62 65 83 82 64 44 31 41 63 156 276 295 290 250 271 276 306 300 317 344 321 325 319 324 329 344 353 354 353 352 350 351 352 351 347
61 80 106 96 78 87 93 82 41 9 33 43 37 20 7 8 23 43 4 358 332 322 344 325 316 316 310 309 334 349 348 346 344 345 347 348 345 342
45 26 68 113 102 94 104 112 86 329 359 20 21 16 16 14 15 23 328 333 311 313 325 328 316 334 325 307 324 334 335 336 338 338 338 339 340 339
153 313 305 136 111 103 107 143 184 157 36 24 4 355 0 3 359 355 350 263 277 284 306 319 307 315 296 301 310 317 326 328 333 334 333 333 334 334
187 223 232 141 113 96 94 103 85 67 66 35 8 346 339 331 328 335 332 320 284 275 294 292 281 285 293 298 300 311 316 319 323 324 323 325 326 325
193 186 162 126 103 71 62 66 56 68 66 23 322 306 298 299 320 331 335 329 320 311 309 299 280 280 272 279 291 300 310 314 320 318 319 321 318 319
159 129 100 86 80 66 33 21 22 178 177 249 280 288 299 313 319 318 320 324 324 317 320 315 299 281 282 278 280 290 296 300 310 312 310 308 309 308
146 93 65 44 21 352 347 336 323 329 296 280 283 302 312 315 311 313 311 317 312 310 315 320 318 299 275 271 283 285 292 296 297 304 308 304 300 302
134 147 201 221 237 252 267 284 279 271 270 275 281 284 291 297 302 306 303 299 297 297 299 306 320 324 315 284 243 272 289 293 298 301 300 301 299 300
150 195 218 227 239 243 245 247 257 263 260 264 271 278 282 287 293 297 297 294 292 292 292 296 303 308 312 308 289 253 280 294 299 301 297 295 295 298
191 212 228 234 237 241 246 252 262 273 273 269 270 275 277 281 287 288 288 286 289 294 296 293 282 276 278 287 291 291 278 277 290 295 298 296 289 289
217 225 231 234 237 240 246 250 253 261 267 269 271 272 274 275 279 282 283 286 286 290 291 291 284 284 279 286 292 292 287 281 279 287 295 299 301 300
220 228 235 238 239 242 247 251 258 265 270 270 273 275 274 273 277 282 284 285 284 281 283 287 294 294 276 278 286 293 297 298 295 290 285 282 289 292
225 230 235 240 242 245 248 253 258 267 269 271 275 278 279 281 280 280 283 282 282 284 289 294 297 288 278 278 285 291 296 300 302 300 295 291 288 286
Height
1566 1566 1566 1566 1566 1565 1565 1565 1565 1564 1564 1563 1562 1561 1560 1558 1557 1555 1553 1552 1550 1548 1546 1544 1542 1539 1538 1537 1537 1537 1536 1535 1533 1531 1530 1530 1532 1534
1567 1567 1566 1566 1566 1566 1565 1565 1565 1565 1564 1563 1562 1561 1560 1558 1557 1555 1553 1552 1550 1548 1546 1545 1543 1541 1539 1538 1537 1536 1535 1534 1533 1531 1530 1531 1532 1533
1567 1567 1567 1567 1566 1566 1566 1565 1565 1564 1563 1563 1562 1561 1560 1558 1556 1555 1553 1552 1550 1548 1547 1545 1543 1542 1540 1539 1537 1536 1534 1533 1532 1532 1531 1531 1532 1532
1568 1567 1567 1567 1567 1566 1566 1565 1565 1564 1564 1562 1561 1560 1559 1558 1556 1554 1553 1552 1550 1548 1547 1545 1543 1542 1540 1539 1537 1536 1534 1532 1532 1531 1531 1531 1530 1531
1568 1568 1567 1567 1567 1566 1566 1565 1565 1564 1563 1562 1561 1560 1559 1557 1556 1554 1553 1551 1549 1548 1546 1544 1543 1541 1540 1538 1537 1535 1534 1532 1531 1531 1530 1530 1529 1529
1568 1568 1567 1567 1567 1566 1566 1565 1565 1564 1563 1562 1561 1559 1558 1557 1555 1553 1552 1551 1549 1547 1546 1544 1543 1541 1540 1538 1536 1535 1533 1532 1531 1530 1529 1528 1528 1527
1568 1567 1567 1567 1566 1566 1566 1565 1564 1564 1563 1562 1560 1559 1557 1556 1554 1553 1551 1550 1548 1547 1545 1544 1542 1540 1539 1537 1536 1534 1533 1531 1530 1528 1527 1526 1525 1524
1567 1567 1567 1566 1566 1566 1565 1565 1564 1563 1562 1561 1560 1558 1557 1556 1554 1553 1551 1549 1547 1547 1544 1542 1541 1539 1537 1536 1534 1533 1531 1530 1528 1526 1525 1523 1522 1521
1567 1567 1566 1566 1566 1565 1565 1564 1564 1563 1562 1561 1559 1558 1557 1555 1554 1552 1550 1549 1547 1545 1543 1541 1539 1537 1536 1534 1533 1531 1529 1527 1525 1524 1522 1521 1519 1517
1566 1566 1565 1565 1565 1564 1564 1563 1563 1562 1561 1559 1558 1557 1556 1554 1553 1552 1550 1548 1546 1544 1542 1539 1537 1535 1534 1533 1531 1529 1527 1525 1523 1521 1519 1517 1516 1514
1566 1565 1565 1564 1564 1563 1563 1562 1561 1561 1560 1559 1558 1556 1555 1553 1552 1550 1548 1546 1544 1542 1541 1538 1535 1533 1531 1530 1529 1527 1525 1523 1521 1518 1516 1514 1512 1510
1565 1564 1564 1563 1563 1562 1562 1561 1560 1559 1558 1557 1556 1555 1553 1552 1550 1548 1547 1544 1542 1539 1538 1536 1534 1531 1528 1527 1526 1524 1522 1520 1518 1515 1513 1510 1508 1505
1563 1563 1563 1562 1562 1561 1560 1560 1559 1558 1556 1555 1554 1553 1551 1550 1548 1546 1545 1543 1541 1538 1537 1534 1532 1529 1528 1524 1522 1521 1519 1516 1514 1511 1509 1507 1504 1501
1562 1562 1561 1561 1560 1560 1559 1558 1557 1556 1555 1553 1552 1550 1549 1547 1546 1544 1543 1541 1539 1536 1534 1532 1529 1527 1524 1521 1518 1516 1515 1512 1510 1507 1505 1502 1500 1498
1560 1560 1560 1559 1559 1558 1557 1556 1555 1554 1552 1551 1549 1548 1546 1545 1543 1541 1540 1538 1536 1533 1531 1529 1527 1524 1522 1518 1515 1512 1510 1507 1505 1503 1500 1497 1494 1492
1557 1557 1557 1557 1556 1555 1555 1553 1552 1551 1550 1548 1547 1545 1544 1542 1540 1538 1536 1533 1531 1529 1528 1526 1523 1520 1517 1515 1512 1509 1506 1503 1500 1498 1495 1492 1489 1487
1555 1554 1554 1554 1553 1552 1552 1551 1549 1548 1547 1546 1544 1542 1540 1538 1536 1535 1532 1530 1527 1524 1522 1521 1519 1516 1513 1511 1507 1505 1502 1499 1496 1493 1489 1485 1483 1481
1552 1551 1551 1550 1550 1549 1548 1547 1546 1545 1544 1542 1541 1539 1537 1535 1532 1531 1528 1526 1523 1520 1518 1516 1513 1510 1507 1505 1504 1499 1496 1493 1490 1487 1484 1479 1475 1473
1548 1548 1548 1547 1546 1546 1545 1544 1543 1542 1540 1539 1537 1535 1533 1531 1528 1526 1524 1521 1518 1516 1513 1511 1508 1505 1501 1497 1495 1495 1492 1487 1484 1481 1478 1474 1469 1465
1545 1544 1544 1543 1543 1542 1541 1540 1539 1538 1536 1535 1533 1531 1529 1526 1524 1521 1519 1516 1513 1510 1508 1506 1504 1501 1498 1494 1489 1487 1486 1483 1479 1474 1471 1467 1463 1460
1541 1541 1540 1540 1539 1538 1537 1536 1535 1533 1532 1530 1528 1526 1524 1521 1518 1516 1513 1511 1508 1505 1502 1500 1498 1496 1493 1489 1485 1480 1479 1477 1474 1470 1465 1461 1455 1451
1537 1537 1537 1536 1535 1534 1533 1532 1530 1529 1527 1525 1523 1521 1518 1516 1513 1510 1507 1505 1502 1499 1496 1494 1492 1490 1487 1483 1479 1474 1471 1469 1467 1465 1461 1457 1453 1446
1533 1533 1532 1532 1531 1530 1528 1527 1526 1524 1522 1520 1518 1515 1513 1510 1507 1504 1502 1499 1496 1493 1490 1487 1485 1483 1480 1477 1473 1469 1465 1461 1458 1455 1453 1451 1448 1444